Погода в Гайтере

Россия / Хабаровский край     50°21′46″N   137°15′06″E
темп.,
°C
ветер,
м/с
пор.,
м/с
влажн.,
%
обл.,
%
осадки,
мм/ч
давл.,
гПа
погр.,
м
18 января, пн
пн1801:00−21ююз2398100 0.2 1019145
04:00−22ююз1198100 0.3 101820
07:00−23с1199100 0.1 101723
10:00−23с2297100 0.1 1017100
13:00−21с229299 0.0 1016290
16:00−21с239298 0.1 1014152
19:00−24с239273 0.0 101522
22:00−24ссв129286 0.0 101642
19 января, вт
вт1901:00−25с119398 0.0 101619
04:00−25ю019598 0.0 101527
07:00−24ю2298100 0.1 101766
10:00−22ююз5995100 0.1 1017577
13:00−23ююз71089100 0.1 1017649
16:00−23ю71288100 0.1 1017770
19:00−24ю71487100 0.0 1021523
22:00−25ю5148681 0.0 1021413
20 января, ср
ср2001:00−25ю512850 0.0 1022293
04:00−26ю511901 0.0 1023282
07:00−26ю4119226 0.0 1024282
10:00−25ю5119039 0.0 1025436
13:00−22ююз6108586 0.0 1024687
16:00−22ююз6118593 0.0 1023673
19:00−23ю4118987 0.0 1024305
22:00−22ю5118984 0.0 1023407
21 января, чт
чт2101:00−19ююз61197100 0.3 1022716
04:00−18ююз51196100 1.0 1020717
07:00−18ююз41095100 0.4 1019579
10:00−19ююз51195100 0.4 1019533
13:00−17ююз61189100 0.1 1018695
16:00−17юз5989100 0.1 1018662
19:00−20ююв1298100 0.0 101920
22:00−21юв1199100 0.1 102020
22 января, пт
пт2201:00−22ссв1210095 0.0 101921
04:00−23ссв349897 0.1 101977
07:00−25с479694 0.0 1017158
10:00−26с489471 0.1 1017219
13:00−23с589055 0.0 1016346
16:00−22с378872 0.0 1016308
19:00−26ссв11885 0.0 101919
22:00−27ю11883 0.0 102119